Home > Weather > Poitiers > Past weeks

Flag for France Past Weather in Poitiers, Poitou-Charentes, France — Yesterday and Last 2 Weeks

Now
61 °F

Clear.


Feels Like: 61 °F
Forecast: 62 / 84 °F
Wind: 6 mph from Northwest

Location: Poitiers Airport

Current Time: Jul 24, 2016 at 5:05:42 AM

Latest Report: Jul 24, 2016 at 4:30 AM


Visibility: 10 mi

Pressure: 30.15 "Hg

Humidity: 88%

Dew Point: 57 °F

Location of PoitiersLocation

Past Weather in Poitiers — Graph

°F

Poitiers Temperature Yesterday

Maximum temperature yesterday: 81 °F (at 3:30 PM)
Minimum temperature yesterday: 57 °F (at 6:00 AM)
Average temperature yesterday: 70 °F

High & Low Weather Summary for the Past Weeks

 TemperatureHumidityPressure
High100 °F (Jul 19, 5:30 PM)100% (Jul 9, 7:00 AM)30.39 "Hg (Jul 9, 7:00 AM)
Low46 °F (Jul 15, 7:00 AM)17% (Jul 19, 5:30 PM)29.89 "Hg (Jul 19, 7:00 PM)
Average69 °F65%30.11 "Hg
* Reported Jul 9 4:00 AM — Jul 24 4:00 AM, Poitiers, Weather by CustomWeather, © 2016

Note: Actual official high and low records may vary slightly from our data, if they occured in-between our weather recording intervals... More about our weather records

Advertising

Poitiers Weather History for the Previous 24 Hours

Scroll right to see more
 ConditionsComfort  
Time TempWeatherWind HumidityBarometerVisibility
4:00 AM
Sun, Jul 24
61 °FClear.7 mph88%30.18 "Hg10 mi
3:30 AM63 °FClear.7 mph83%30.18 "Hg10 mi
3:00 AM63 °FClear.6 mph83%30.15 "Hg10 mi
2:30 AM63 °FClear.7 mph77%30.18 "Hg10 mi
2:00 AM63 °FClear.6 mph77%30.18 "Hg10 mi
1:30 AM64 °FClear.3 mph73%30.18 "Hg10 mi
1:00 AM64 °FClear.5 mph73%30.18 "Hg10 mi
12:30 AM64 °FClear.6 mph73%30.18 "Hg10 mi
12:00 AM66 °FClear.5 mph68%30.18 "Hg10 mi
11:30 PM
Sat, Jul 23
68 °FClear.5 mph64%30.18 "Hg10 mi
11:00 PM70 °FClear.3 mph60%30.18 "Hg10 mi
10:30 PM72 °FSunny.3 mph57%30.15 "Hg10 mi
10:00 PM72 °FSunny.6 mph57%30.15 "Hg10 mi
9:30 PM73 °FSunny.6 mph53%30.15 "Hg10 mi
9:00 PM77 °FSunny.8 mph47%30.15 "Hg10 mi
8:30 PM79 °FSunny.7 mph45%30.12 "Hg10 mi
8:00 PM81 °FPassing clouds.8 mph39%30.12 "HgN/A
7:30 PM81 °FSunny.9 mph39%30.12 "Hg10 mi
7:00 PM81 °FPassing clouds.8 mph42%30.12 "HgN/A
6:30 PM81 °FPassing clouds.10 mph42%30.12 "HgN/A
6:00 PM81 °FPassing clouds.7 mph42%30.12 "HgN/A
5:30 PM79 °FPassing clouds.9 mph45%30.12 "HgN/A
5:00 PM79 °FPassing clouds.6 mph45%30.15 "HgN/A
4:30 PM81 °FPassing clouds.7 mph42%30.15 "HgN/A
4:00 PM81 °FPassing clouds.8 mph42%30.15 "HgN/A
3:30 PM81 °FPassing clouds.9 mph42%30.15 "HgN/A
3:00 PM79 °FSunny.5 mph48%30.15 "Hg10 mi
2:30 PM79 °FPassing clouds.9 mph45%30.15 "HgN/A
2:00 PM79 °FPassing clouds.10 mph42%30.15 "HgN/A
1:30 PM77 °FPassing clouds.9 mph47%30.15 "HgN/A
1:00 PM77 °FPassing clouds.8 mph47%30.15 "HgN/A
12:30 PM77 °FPassing clouds.8 mph51%30.15 "HgN/A
12:00 PM75 °FPassing clouds.9 mph50%30.18 "HgN/A
11:30 AM73 °FPassing clouds.10 mph53%30.18 "HgN/A
11:00 AM72 °FPassing clouds.10 mph57%30.15 "HgN/A
10:30 AM70 °FPassing clouds.8 mph64%30.15 "HgN/A
10:00 AM68 °FPassing clouds.5 mph69%30.15 "HgN/A
9:30 AM66 °FSunny.7 mph73%30.15 "Hg10 mi
9:00 AM64 °FPassing clouds.6 mph78%30.15 "HgN/A
8:30 AM63 °FPassing clouds.5 mph83%30.15 "HgN/A
8:00 AM61 °FSunny.5 mph88%30.12 "Hg10 mi
7:30 AM59 °FSunny.6 mph88%30.12 "Hg10 mi
7:00 AM57 °FClear.6 mph88%30.12 "Hg10 mi
6:30 AM57 °FClear.7 mph88%30.12 "Hg10 mi
6:00 AM57 °FClear.5 mph88%30.12 "Hg10 mi
5:30 AM59 °FClear.6 mph82%30.12 "Hg10 mi
5:00 AM59 °FClear.6 mph82%30.12 "Hg10 mi
Weather by CustomWeather, © 2016

See weather overviewHow to use our weather pages